TUBIN
1 48900U 21059X   25261.30341078  .00072198  00000-0  57653-3 0  9996
2 48900  97.6770  79.4592 0003032 214.0484 146.0583 15.70903115235791
LEDSAT
1 49069U 21073D   25260.83055567  .00222157  00000-0  10424-2 0  9997
2 49069  97.3765 347.7461 0001591  68.3795 291.7643 15.82594972227154
CUTE
1 49263U 21088D   25261.25491249  .00018581  00000-0  31271-3 0  9995
2 49263  97.4427 340.7156 0005859 209.7617 150.3303 15.51758123220012
TeikyoSat 4
1 49396U 21102B   25261.02398994  .00001822  00000-0  12200-3 0  9998
2 49396  97.4029 295.8100 0013443 143.0316 217.1842 15.08043809211683
Z-Sat
1 49399U 21102E   25261.22528866  .00003747  00000-0  20201-3 0  9994
2 49399  97.3723 299.7433 0019491 113.2466 247.0821 15.15216848212214
KOSEN 1
1 49402U 21102H   25261.07138760  .00007311  00000-0  32571-3 0  9996
2 49402  97.3621 303.7952 0017171  88.5166 271.8037 15.21595770212565
HO-113
1 50466U 21131B   25261.31412387  .00000461  00000-0  15747-3 0  9992
2 50466  98.5082 350.1687 0004213 178.8350 181.2849 14.40926087195950
SNUGLITE 2
1 52899U 22065F   25261.21174237  .00001196  00000-0  24012-3 0  9990
2 52899  98.1832  42.2982 0008157 150.6362 209.5300 14.63449328171201
UmKA 1 (RS40S)
1 57172U 23091G   25261.27407620  .00005082  00000-0  26408-3 0  9999
2 57172  97.5487 316.1467 0013481 352.7178   7.3857 15.16461089122738
CubeBel-2 (EU11S)
1 57175U 23091K   25261.21736672  .00008821  00000-0  39858-3 0  9995
2 57175  97.5484 317.8954 0011121 359.4877   0.6345 15.21138195122841
ENSO
1 58470U 23185J   25260.84302297  .00133003  00000-0  10580-2 0  9999
2 58470  97.3623 340.0248 0003083  89.2047 270.9569 15.70803905100682
SONATE-2
1 59112U 24043Q   25260.93265286  .00019787  00000-0  50986-3 0  9990
2 59112  97.5250  34.4227 0011017 115.5039 244.7347 15.39183701 85758
MO-122
1 60209U 24125G   25261.04741816  .00020418  00000-0  51447-3 0  9997
2 60209  97.2674 111.7205 0018514 132.2063 228.0759 15.39740317 67395
GRBBeta
1 60237U 24128C   25261.06059929  .00004470  00000-0  33037-3 0  9995
2 60237  61.9900  89.0025 0056810  79.2197 281.5283 15.03490613 65309
Curium One
1 60242U 24128H   25261.11234248  .00008260  00000-0  54874-3 0  9999
2 60242  61.9797  85.4921 0056562  76.0343 284.7031 15.06608370 65373
ROBUSTA-3A
1 60243U 24128J   25260.94901533  .00006721  00000-0  45625-3 0  9992
2 60243  61.9870  87.2470 0056218  73.5023 287.2236 15.06063183 65338
CatSat
1 60246U 24125J   25261.04818522  .00020481  00000-0  61880-3 0  9999
2 60246  97.2491 109.7443 0041409  95.8283 264.7683 15.33400262 65365
HYPERVIEW-1G (RS66S)
1 61772U 24199AP  25261.23668620  .00024450  00000-0  61708-3 0  9997
2 61772  97.3366 130.0782 0012228 180.5437 179.5798 15.39757930 92425
AO-123
1 61781U 24199AY  25261.23599133  .00007130  00000-0  24970-3 0  9995
2 61781  97.3389 127.7107 0014806 193.7988 166.2850 15.29691184 92266
ZIMSAT 2
1 61783U 24199BA  25261.23157005  .00052385  00000-0  96270-3 0  9999
2 61783  97.3318 131.6885 0011498 170.1384 190.0095 15.48991815 95680
HADES-R (SO-124)
1 62690U 25009CK  25261.16204992  .00048860  00000-0  13396-2 0  9998
2 62690  97.4022 342.0360 0002871 125.9865 234.1646 15.37129071 37553
HYDRA-T
1 62692U 25009CM  25260.79930155  .00050509  00000-0  13651-2 0  9992
2 62692  97.4023 341.7581 0002326 122.7848 237.3621 15.37566673 37504
JINJUSat 1B
1 63210U 25052A   25260.94661603  .00011454  00000-0  49163-3 0  9997
2 63210  97.4269 153.8625 0003647   7.7066 352.4226 15.22865535 28519
NUSHSAT 1
1 63211U 25052B   25260.65632316  .00014351  00000-0  60614-3 0  9998
2 63211  97.4254 153.6133 0003924  14.1015 346.0331 15.23354715 28475
TEVEL2-4
1 63213U 25052D   25260.69262066  .00012716  00000-0  54417-3 0  9992
2 63213  97.4170 153.3640 0004014  32.8426 327.3059 15.22939248 28476
TEVEL2-5
1 63214U 25052E   25261.15495539  .00012416  00000-0  53181-3 0  9992
2 63214  97.4177 153.8163 0003891  33.3875 326.7606 15.22914036 28542
TEVEL2-6
1 63215U 25052F   25261.15974015  .00012592  00000-0  53992-3 0  9999
2 63215  97.4174 153.8130 0004014  33.5169 326.6321 15.22873256 28541
TEVEL2-1
1 63217U 25052H   25260.66047930  .00013099  00000-0  56598-3 0  9991
2 63217  97.4147 153.1980 0004594  41.6589 318.4997 15.22601575 28460
TEVEL2-3
1 63218U 25052J   25260.92339789  .00013102  00000-0  56583-3 0  9996
2 63218  97.4150 153.4596 0004661  41.6743 318.4848 15.22616878 28500
TEVEL2-2
1 63219U 25052K   25260.66119544  .00013027  00000-0  56294-3 0  9998
2 63219  97.4148 153.1985 0004637  41.9271 318.2320 15.22598137 28464
TEVEL2-9
1 63237U 25052AD  25260.67701624  .00011591  00000-0  52042-3 0  9996
2 63237  97.4213 153.0292 0009108  39.3529 320.8367 15.21292729 28447
TEVEL2-7
1 63238U 25052AE  25260.68415160  .00011377  00000-0  51221-3 0  9995
2 63238  97.4216 153.0241 0009215  39.4426 320.7479 15.21202537 28442
TEVEL2-8
1 63239U 25052AF  25260.68820861  .00011463  00000-0  51649-3 0  9994
2 63239  97.4215 153.0166 0009212  39.5536 320.6371 15.21173146 28441
HYDRA-W
1 63490U 25052BL  25261.15656274  .00033093  00000-0  11759-2 0  9991
2 63490  97.4169 154.5464 0011828  34.0876 326.1121 15.28879268 28593
HADES-ICM (SO-125)
1 63492U 25052BN  25261.14445564  .00030576  00000-0  11143-2 0  9990
2 63492  97.4161 154.4242 0012309  36.2243 323.9827 15.28059344 28589
